User: anonymous   Login
Location: Unspecified
(0.0000°N, 0.0000°E)
Time: 18:23:11
(UTC+00:00)
Language:

STARLINK-32907 - Orbit

View from above orbital plane
View from above orbital plane
View from above satellite
View from above satellite

Ground track
Ground track

The orbit is defined by the following mean orbital elements,

1 63095U          26145.41769786 +.00000000 +00000-0 +66101-3 0 00009
2 63095  70.0006 161.0537 0004136 262.2375  97.8315 14.98333479    06
Epoch (UTC): 25 May 2026 10:01:29
Eccentricity: 0.0004136
inclination: 70.0006°
perigee height: 569 km
apogee height: 575 km
right ascension of ascending node: 161.0537°
argument of perigee: 262.2375°
revolutions per day: 14.98333479
mean anomaly at epoch: 97.8315°

The dashed part of the orbit path shows where the satellite is in the earth's shadow,  

DLR